Погода в Башкортостане

Россия / Республика Башкортостан     56°14′37″N   56°15′03″E
темп.,
°C
ветер,
м/с
пор.,
м/с
влажн.,
%
обл.,
%
осадки,
мм/ч
давл.,
гПа
погр.,
м
5 марта, пт
пт523:00−4ююз101695100 2.4 991892
02:00−2зюз81581100 2.9 9891220
05:00−5зюз9169083 3.0 992721
08:00−6з71190100 0.1 996683
11:00−8зюз5892100 0.2 999480
14:00−7зюз4691100 0.0 1000478
17:00−7з4690100 0.1 1002538
20:00−12зсз349393 0.0 100455
6 марта, сб
сб623:00−15з239246 0.0 100822
02:00−16юз349512 0.0 100851
05:00−14юз489653 0.1 1010235
08:00−14юз4995100 0.3 1010280
11:00−11зюз4794100 0.6 1011365
14:00−9зюз4590100 0.3 1011600
17:00−9зюз4588100 0.4 1011701
20:00−14зюз349597 0.1 101240
7 марта, вс
вс723:00−18з129972 0.1 101220
02:00−20ююз1110024 0.0 101220
05:00−20ю1110058 0.1 101220
08:00−21всв0010086 0.0 101020
11:00−15сз119285 0.1 1010220
14:00−12сз3386100 0.0 1008491
17:00−11з3387100 0.1 1008501
20:00−17юз339643 0.0 100920
8 марта, пн
пн823:00−18ююз339953 0.1 101048
02:00−18ю3598100 0.1 1008101
05:00−17ююв41096100 0.1 1007238
08:00−15ююв61394100 0.2 1004423
11:00−11ю71292100 1.1 1000722
14:00−7ю71290100 0.6 999869
17:00−3зюз111580100 1.6 9991165
20:00−10юз5128733 0.0 1002281
9 марта, вт
вт923:00−12ю489224 0.0 1004136
02:00−13юв359493 0.0 100184
05:00−10в6109597 1.8 995360
08:00−7ююз51194100 3.7 993635
11:00−8сз81391100 4.8 997823
14:00−7з71090100 0.1 1003757
17:00−7зюз6990100 0.3 1006688
20:00−9юз51095100 0.2 1008333